STARLINK-31994

Last updated on Fri Sep 20 2024 00:02:03 GMT+0000 (Coordinated Universal Time)

1 60588U 24150F 24263.58334491 -.02166114 00000+0 -54969-1 0 9999 2 60588 53.1596 279.2141 0001880 76.1991 241.7649 15.42924484 5892
UTC large
Height (km)
Speed (km/s)
/
Latitude / Longitude
Inclination (degrees)
Orbital Period (minutes)
Azimuth
Elevation
Range (km)
Doppler Factor

Next 0 passes for location: London (51.5072 / 0.1276)

Sorry there are no passes over London.